TimeCDT,TemperatureF,Dew PointF,Humidity,Sea Level PressureIn,VisibilityMPH,Wind Direction,Wind SpeedMPH,Gust SpeedMPH,PrecipitationIn,Events,Conditions,WindDirDegrees,DateUTC
12:15 AM,55.2,50.4,84,29.86,10.0,SSE,10.4,-,N/A,,Clear,160,2013-04-29 05:15:00
12:35 AM,54.0,49.6,85,29.86,10.0,SSE,9.2,-,N/A,,Clear,150,2013-04-29 05:35:00
12:55 AM,54.0,50.0,86,29.87,10.0,SSE,11.5,-,N/A,,Clear,150,2013-04-29 05:55:00
1:15 AM,54.0,50.4,88,29.87,10.0,SSE,9.2,-,N/A,,Clear,160,2013-04-29 06:15:00
1:35 AM,54.0,50.4,88,29.86,10.0,South,9.2,-,N/A,,Clear,170,2013-04-29 06:35:00
1:55 AM,54.1,50.0,86,29.87,10.0,SSW,10.4,-,N/A,,Clear,200,2013-04-29 06:55:00
2:15 AM,54.0,49.6,85,29.87,10.0,SSW,10.4,-,N/A,,Clear,200,2013-04-29 07:15:00
2:35 AM,54.0,49.8,86,29.86,10.0,SSW,9.2,-,N/A,,Clear,200,2013-04-29 07:35:00
2:55 AM,54.0,50.0,86,29.86,10.0,South,10.4,-,N/A,,Clear,190,2013-04-29 07:55:00
3:15 AM,54.0,50.4,88,29.86,10.0,South,9.2,-,N/A,,Clear,190,2013-04-29 08:15:00
3:35 AM,54.0,50.4,88,29.85,10.0,SSW,6.9,-,N/A,,Clear,200,2013-04-29 08:35:00
3:55 AM,54.0,50.9,89,29.87,10.0,SSW,8.1,-,N/A,,Clear,210,2013-04-29 08:55:00
4:15 AM,54.0,50.9,89,29.87,7.0,SSW,9.2,-,N/A,,Clear,200,2013-04-29 09:15:00
4:35 AM,51.6,49.3,92,29.87,7.0,South,6.9,-,N/A,,Clear,190,2013-04-29 09:35:00
4:55 AM,51.4,49.1,92,29.88,7.0,SSW,8.1,-,N/A,,Clear,200,2013-04-29 09:55:00
5:15 AM,53.6,51.3,92,29.89,7.0,SSW,6.9,-,N/A,,Clear,200,2013-04-29 10:15:00
5:35 AM,49.6,47.5,92,29.89,5.0,South,6.9,-,N/A,,Clear,190,2013-04-29 10:35:00
5:55 AM,49.1,46.9,92,29.89,5.0,South,4.6,-,N/A,,Clear,180,2013-04-29 10:55:00
6:15 AM,50.4,48.4,93,29.88,4.0,South,8.1,-,N/A,,Clear,170,2013-04-29 11:15:00
6:35 AM,51.4,49.5,93,29.88,4.0,South,8.1,-,N/A,,Clear,170,2013-04-29 11:35:00
6:55 AM,54.0,51.1,90,29.89,5.0,South,5.8,-,N/A,,Clear,180,2013-04-29 11:55:00
7:15 AM,54.0,51.1,90,29.89,5.0,South,10.4,-,N/A,,Clear,180,2013-04-29 12:15:00
7:35 AM,54.0,51.1,90,29.89,5.0,South,11.5,-,N/A,,Clear,190,2013-04-29 12:35:00
7:55 AM,54.0,50.5,88,29.90,5.0,South,5.8,-,N/A,,Clear,190,2013-04-29 12:55:00
8:15 AM,54.5,50.9,88,29.91,7.0,SSW,8.1,-,N/A,,Clear,210,2013-04-29 13:15:00
8:35 AM,56.5,51.8,84,29.91,7.0,SSW,4.6,-,N/A,,Clear,200,2013-04-29 13:35:00
8:55 AM,59.0,52.9,80,29.90,10.0,SSW,5.8,-,N/A,,Clear,200,2013-04-29 13:55:00
9:15 AM,64.4,54.3,70,29.89,10.0,South,5.8,-,N/A,,Clear,170,2013-04-29 14:15:00
9:35 AM,65.1,54.0,67,29.89,10.0,South,8.1,-,N/A,,Clear,180,2013-04-29 14:35:00
9:55 AM,67.1,54.5,64,29.87,10.0,SSE,5.8,-,N/A,,Clear,150,2013-04-29 14:55:00
10:15 AM,69.1,54.1,59,29.87,10.0,South,9.2,-,N/A,,Clear,180,2013-04-29 15:15:00
10:35 AM,71.8,55.2,56,29.87,10.0,South,12.7,-,N/A,,Clear,190,2013-04-29 15:35:00
10:55 AM,71.8,54.7,55,29.87,10.0,SSE,10.4,-,N/A,,Clear,160,2013-04-29 15:55:00
11:15 AM,72.1,53.2,51,29.87,10.0,SSE,11.5,-,N/A,,Clear,160,2013-04-29 16:15:00
11:35 AM,69.3,52.2,54,29.86,10.0,South,11.5,-,N/A,,Clear,170,2013-04-29 16:35:00
11:55 AM,69.3,51.8,54,29.86,10.0,SSE,8.1,-,N/A,,Clear,160,2013-04-29 16:55:00
12:15 PM,71.1,51.3,49,29.86,10.0,SSE,11.5,-,N/A,,Scattered Clouds,160,2013-04-29 17:15:00
12:35 PM,69.1,50.9,52,29.84,10.0,SE,10.4,-,N/A,,Scattered Clouds,130,2013-04-29 17:35:00
12:55 PM,68.9,49.6,50,29.82,10.0,ESE,12.7,-,N/A,,Mostly Cloudy,120,2013-04-29 17:55:00
1:15 PM,69.3,49.6,50,29.81,10.0,ESE,12.7,16.1,N/A,,Scattered Clouds,120,2013-04-29 18:15:00
1:35 PM,71.8,50.7,47,29.82,10.0,SE,13.8,-,N/A,Rain,Light Rain,140,2013-04-29 18:35:00
1:55 PM,73.0,48.9,42,29.82,10.0,SE,13.8,-,N/A,,Mostly Cloudy,140,2013-04-29 18:55:00
2:15 PM,74.3,50.0,42,29.82,10.0,SE,11.5,-,N/A,,Overcast,130,2013-04-29 19:15:00
2:35 PM,74.3,50.7,43,29.80,10.0,SE,13.8,17.3,N/A,,Mostly Cloudy,130,2013-04-29 19:35:00
2:55 PM,79.2,51.4,38,29.79,10.0,ESE,19.6,24.2,N/A,Thunderstorm,Scattered Clouds,120,2013-04-29 19:55:00
3:15 PM,76.1,50.2,40,29.79,10.0,ESE,16.1,24.2,N/A,,Clear,120,2013-04-29 20:15:00
3:35 PM,74.3,52.2,46,29.77,10.0,ESE,17.3,24.2,N/A,,Clear,120,2013-04-29 20:35:00
3:55 PM,76.8,52.7,43,29.75,10.0,SE,19.6,26.5,N/A,,Clear,130,2013-04-29 20:55:00
4:15 PM,79.3,55.0,43,29.73,10.0,SE,23.0,27.6,N/A,,Clear,130,2013-04-29 21:15:00
4:35 PM,79.3,54.1,42,29.73,10.0,SE,25.3,28.8,N/A,,Clear,130,2013-04-29 21:35:00
4:55 PM,78.8,55.4,44,29.73,10.0,SE,23.0,27.6,N/A,,Clear,140,2013-04-29 21:55:00
5:15 PM,77.0,55.4,47,29.74,10.0,SSE,19.6,26.5,N/A,,Clear,150,2013-04-29 22:15:00
5:35 PM,79.3,55.8,44,29.74,10.0,SSE,17.3,24.2,N/A,,Clear,150,2013-04-29 22:35:00
5:55 PM,79.3,57.7,47,29.74,10.0,SSE,19.6,29.9,N/A,,Clear,150,2013-04-29 22:55:00
6:15 PM,79.3,57.2,47,29.74,10.0,SSE,18.4,-,N/A,,Scattered Clouds,150,2013-04-29 23:15:00
6:35 PM,76.1,57.0,51,29.74,10.0,SSE,20.7,26.5,N/A,,Scattered Clouds,150,2013-04-29 23:35:00
6:55 PM,74.3,59.2,59,29.74,10.0,SSE,15.0,-,N/A,,Clear,150,2013-04-29 23:55:00
7:15 PM,74.3,59.2,59,29.74,10.0,SE,15.0,-,N/A,,Clear,140,2013-04-30 00:15:00
7:35 PM,71.8,59.0,64,29.74,10.0,SE,18.4,-,N/A,,Clear,140,2013-04-30 00:35:00
7:55 PM,69.3,57.6,66,29.74,10.0,SE,16.1,-,N/A,,Clear,140,2013-04-30 00:55:00
8:15 PM,69.3,58.1,68,29.74,10.0,SE,18.4,24.2,N/A,,Clear,140,2013-04-30 01:15:00
8:35 PM,67.5,57.2,70,29.74,10.0,SE,18.4,-,N/A,,Clear,140,2013-04-30 01:35:00
8:55 PM,67.1,57.2,70,29.75,10.0,SE,15.0,-,N/A,,Clear,140,2013-04-30 01:55:00
9:15 PM,66.6,57.4,72,29.74,10.0,SE,18.4,-,N/A,,Clear,130,2013-04-30 02:15:00
9:35 PM,66.6,57.6,73,29.75,10.0,SE,17.3,-,N/A,,Clear,140,2013-04-30 02:35:00
9:55 PM,66.7,57.9,73,29.77,10.0,SE,18.4,25.3,N/A,,Scattered Clouds,140,2013-04-30 02:55:00
10:15 PM,66.6,58.1,74,29.75,10.0,SE,19.6,-,N/A,,Scattered Clouds,140,2013-04-30 03:15:00
10:35 PM,66.4,58.5,76,29.75,10.0,SE,18.4,26.5,N/A,,Clear,140,2013-04-30 03:35:00
10:55 PM,65.3,58.6,79,29.75,10.0,SSE,23.0,27.6,N/A,Rain,Light Rain,150,2013-04-30 03:55:00
11:15 PM,65.3,58.1,77,29.74,10.0,SSE,23.0,-,N/A,,Scattered Clouds,150,2013-04-30 04:15:00
11:35 PM,65.3,58.1,77,29.74,10.0,SE,20.7,26.5,N/A,,Clear,140,2013-04-30 04:35:00
11:55 PM,64.6,58.1,79,29.74,10.0,SSE,21.9,28.8,N/A,,Clear,150,2013-04-30 04:55:00